軌道要素
Epoch 2013 Sept. 25.0 TT = JDT 2456560.5
T 2013 Sept. 9.98715 TT MPC
q 3.1801075 (2000.0) P Q
z +0.0012151 Peri. 337.96883 +0.19176925 -0.16046428
+/-0.0000060 Node 276.75213 -0.69011677 -0.72350348
e 0.9961358 Incl. 102.83965 -0.69782763 +0.67141189
From 97 observations 2013 July 24-2014 July 20, mean residual 0".4.
|